DW4326 Weather Reports


time (UTC)temp
C
wind
direction
speed
KPH
gust
KPH
rain 1hr
cm
rain 24hr
cm
rain mn
cm
humidity
%
barometer
mb
20260901213849 18 232 0.0 0.0 0.00 0.84 0.84 94 1017.4
20260901211638 18 232 0.0 0.0 0.00 0.84 0.84 93 1017.3
20260901210136 18 232 0.0 0.0 0.00 0.84 0.84 94 1017.1
20260901204633 18 232 0.0 0.0 0.00 0.84 0.84 94 1017.2
20260901203132 18 232 0.0 0.0 0.00 0.84 0.84 92 1017.1
20260901201629 18 246 0.0 0.0 0.00 0.84 0.84 90 1017.0
20260901200127 18 248 0.0 0.0 0.03 0.84 0.84 93 1017.1
20260901194627 18 248 0.0 0.0 0.03 0.84 0.84 91 1017.2
20260901193128 18 248 0.0 0.0 0.03 0.84 0.84 90 1017.2
20260901191627 18 248 0.0 0.0 0.03 0.84 0.84 90 1017.1
20260901190126 18 248 0.0 0.0 0.00 0.81 0.81 90 1017.3
20260901184626 18 252 0.0 0.0 0.00 0.81 0.81 89 1017.4
20260901183123 17 252 0.0 0.0 0.00 0.81 0.81 89 1017.3
20260901181623 17 252 0.0 0.0 0.00 0.81 0.81 94 1017.4
20260901180816 17 329 0.0 0.0 0.00 0.81 0.81 95 1017.3
20260901174622 17 329 0.0 0.0 0.00 0.81 0.81 94 1017.3
20260901173122 17 329 0.0 0.0 0.00 0.81 0.81 91 1017.2
20260901171623 16 329 0.0 0.0 0.00 0.81 0.81 95 1017.2
20260901170123 16 329 0.0 0.0 0.00 0.81 0.81 96 1017.2
20260901165319 16 329 0.0 0.0 0.00 0.81 0.81 95 1017.4
20260901163819 16 329 0.0 0.0 0.00 0.81 0.81 96 1017.4
20260901161620 16 329 0.0 0.0 0.00 0.81 0.81 96 1017.3
20260901160117 16 329 0.0 0.0 0.00 0.81 0.81 97 1017.3
20260901154616 16 329 0.0 0.0 0.00 0.81 0.81 97 1017.4
20260901153809 16 329 0.0 0.0 0.00 0.81 0.81 96 1017.8
20260901152317 16 329 0.0 0.0 0.00 0.81 0.81 97 1018.0
20260901150118 16 329 0.0 0.0 0.00 0.81 0.81 98 1017.9
20260901144614 15 329 0.0 0.0 0.03 0.81 0.81 97 1017.8
20260901143115 15 329 0.0 0.0 0.03 0.81 0.81 97 1017.8
20260901141612 15 329 0.0 0.0 0.05 0.81 0.81 97 1017.3
20260901140112 15 329 0.0 0.0 0.05 0.81 0.81 98 1017.1
20260901135314 15 329 0.0 0.0 0.05 0.79 0.79 98 1017.4
20260901133111 15 329 0.0 0.0 0.08 0.79 0.79 97 1017.4
20260901131608 15 329 0.0 0.0 0.10 0.76 0.76 98 1017.9
20260901130109 15 329 0.0 0.0 0.18 0.76 0.76 97 1017.8
20260901124606 15 329 0.0 0.0 0.25 0.74 0.74 97 1017.8
20260901123105 14 329 0.0 0.0 0.33 0.71 0.71 97 1018.0
20260901121603 14 329 0.0 0.0 0.38 0.66 0.66 97 1017.9
20260901120059 14 329 0.0 0.0 0.41 0.58 0.58 97 1018.0
20260901114559 14 329 0.0 0.0 0.36 0.48 0.48 97 1018.1
20260901113058 14 329 0.0 0.0 0.30 0.38 0.38 97 1017.8
20260901111601 14 329 0.0 0.0 0.25 0.28 0.28 97 1017.9
20260901110100 14 329 0.0 0.0 0.18 0.18 0.18 96 1017.8
20260901104557 14 329 0.0 0.0 0.13 0.13 0.13 96 1017.4
20260901103057 15 329 0.0 0.0 0.08 0.08 0.08 96 1017.3
20260901101556 14 329 0.0 0.0 0.03 0.03 0.03 96 1017.2
20260901100056 14 329 0.0 0.0 0.00 0.00 0.00 95 1016.9
20260901094557 14 329 0.0 0.0 0.00 0.00 0.00 95 1017.0
20260901093056 14 329 0.0 0.0 0.00 0.00 0.00 95 1017.2
20260901091556 14 329 0.0 0.0 0.00 0.00 0.00 95 1016.9
20260901090056 14 330 0.0 0.0 0.00 0.00 0.00 95 1017.0
20260901084556 14 330 0.0 0.0 0.00 0.00 0.00 95 1017.0
20260901083055 14 330 0.0 0.0 0.00 0.00 0.00 95 1016.9
20260901081555 14 330 0.0 0.0 0.00 0.00 0.00 95 1016.9
20260901080054 14 330 0.0 0.0 0.00 0.00 0.00 95 1017.1
20260901074551 14 330 0.0 0.0 0.00 0.00 0.00 95 1017.1
20260901073053 14 330 0.0 0.0 0.00 0.03 0.00 95 1016.9
20260901072248 14 330 0.0 0.0 0.00 0.03 0.00 95 1017.1
20260901070052 14 330 0.0 0.0 0.00 0.03 0.00 95 1017.2
20260901064550 14 330 0.0 0.0 0.00 0.03 0.00 95 1017.3
20260901063746 14 330 0.0 0.0 0.00 0.03 0.00 95 1017.5
20260901062254 14 330 0.0 0.0 0.00 0.03 0.00 95 1017.4
20260901060056 14 330 0.0 0.0 0.00 0.03 0.00 95 1017.8
20260901054547 14 330 0.0 0.0 0.00 0.03 0.00 94 1017.8
20260901053045 14 330 0.0 0.0 0.00 0.03 0.00 94 1018.0
20260901051547 14 330 0.0 0.0 0.00 0.03 0.00 94 1017.9
20260901050045 14 330 0.0 0.0 0.00 0.03 0.00 94 1018.1
20260901044542 13 330 0.0 0.0 0.00 0.03 0.00 94 1018.1
20260901043041 13 330 0.0 0.0 0.00 0.03 0.00 94 1017.9
20260901041540 13 330 0.0 0.0 0.00 0.03 0.00 93 1017.9
20260901040039 14 330 0.0 0.0 0.00 0.03 0.00 92 1017.7
20260901034540 14 330 0.0 0.0 0.00 0.03 0.03 92 1017.5
20260901033038 14 330 0.0 0.0 0.00 0.03 0.03 92 1017.7
20260901031536 14 330 0.0 0.0 0.00 0.03 0.03 92 1017.5
20260901030035 14 330 0.0 0.0 0.00 0.03 0.03 91 1017.7
20260901025237 14 330 0.0 0.0 0.00 0.03 0.03 91 1017.5
20260901023031 14 330 0.0 0.0 0.00 0.03 0.03 91 1017.7
20260901021529 15 330 0.0 0.0 0.00 0.03 0.03 90 1017.7
20260901020026 15 330 0.0 0.0 0.00 0.03 0.03 90 1017.8
20260901014527 15 330 0.0 0.0 0.00 0.03 0.03 89 1017.8
20260901013028 15 330 0.0 0.0 0.00 0.03 0.03 88 1017.7
20260901011522 16 330 0.0 0.0 0.00 0.03 0.03 89 1017.8
20260901010023 16 330 0.0 0.0 0.00 0.03 0.03 88 1017.7
20260901004523 16 330 0.0 0.0 0.00 0.03 0.03 88 1017.5
20260901003023 17 330 0.0 0.0 0.00 0.03 0.03 89 1017.7
20260901001523 17 330 0.0 0.0 0.00 0.03 0.03 88 1017.8
20260901000717 17 330 0.0 0.0 0.00 0.03 0.03 87 1017.5
20260831234523 17 330 0.0 0.0 0.00 0.03 0.03 86 1017.7
20260831233023 17 330 0.0 0.0 0.00 0.05 0.03 84 1017.7
20260831231522 18 330 0.0 0.0 0.00 0.08 0.03 81 1017.8
20260831230022 18 330 0.0 0.0 0.00 0.08 0.03 81 1017.8
20260831224522 19 330 0.0 0.0 0.00 0.08 0.03 79 1017.9
20260831223021 20 330 0.0 0.0 0.00 0.08 0.03 76 1018.1
20260831221523 20 330 0.0 0.0 0.00 0.08 0.03 73 1017.9
20260831220022 21 330 0.0 0.0 0.00 0.08 0.03 72 1017.8
20260831214518 21 330 0.0 0.0 0.00 0.08 0.03 68 1017.9